DW2074 Weather Reports


Display with metric or nautical units.
time (UTC)temp
F
wind
direction
speed
MPH
gust
MPH
rain 1hr
in
rain 24hr
in
rain mn
in
humidity
%
barometer
mb
20260504100516 36 146 0.0 0.0 0.00 0.00 0.00 88 1012.7
20260504081909 38 146 0.0 0.0 0.00 0.00 0.00 89 1013.2
20260504081406 38 146 0.0 0.0 0.00 0.00 0.00 87 1013.1
20260504080902 38 146 0.0 0.0 0.00 0.00 0.00 88 1013.0
20260504080359 38 146 0.0 0.0 0.00 0.00 0.00 88 1013.0
20260504070327 38 146 0.0 0.0 0.00 0.00 0.00 84 1012.8
20260504060247 39 146 0.0 0.0 0.00 0.00 0.00 83 1012.9
20260504050715 40 146 0.0 0.0 0.00 0.00 0.00 77 1013.0
20260504050212 40 146 0.0 0.0 0.00 0.00 0.00 77 1013.0
20260504045709 41 146 0.0 0.0 0.00 0.00 0.00 77 1013.0
20260504045209 41 146 0.0 0.0 0.00 0.00 0.00 77 1013.0
20260504044708 41 146 0.0 0.0 0.00 0.00 0.00 75 1012.9
20260504044204 41 146 0.0 0.0 0.00 0.00 0.00 75 1012.9
20260504043701 41 146 0.0 0.0 0.00 0.00 0.00 79 1012.8
20260504043158 41 146 0.0 0.0 0.00 0.00 0.00 79 1012.8
20260504042655 42 146 0.0 0.0 0.00 0.00 0.00 77 1012.7
20260504042152 42 146 0.0 0.0 0.00 0.00 0.00 77 1012.7
20260504041648 42 146 0.0 0.0 0.00 0.00 0.00 76 1012.8
20260504041144 42 146 0.0 0.0 0.00 0.00 0.00 76 1012.8
20260504040641 42 146 0.0 0.0 0.00 0.00 0.00 77 1012.8
20260504040138 42 146 0.0 0.0 0.00 0.00 0.00 77 1012.8
20260504035635 43 146 0.0 0.0 0.00 0.00 0.00 73 1012.7
20260504035132 43 146 0.0 0.0 0.00 0.00 0.00 73 1012.7
20260504034629 43 146 0.0 0.0 0.00 0.00 0.00 72 1012.6
20260504034126 43 146 0.0 0.0 0.00 0.00 0.00 72 1012.6
20260504033624 43 146 0.0 0.0 0.00 0.00 0.00 72 1012.5
20260504033121 43 146 0.0 0.0 0.00 0.00 0.00 72 1012.5
20260504032618 43 146 0.0 0.0 0.00 0.00 0.00 69 1012.6
20260504032115 43 146 0.0 0.0 0.00 0.00 0.00 69 1012.6
20260504031612 44 146 0.0 0.0 0.00 0.00 0.00 68 1012.5
20260504031108 44 146 0.0 0.0 0.00 0.00 0.00 68 1012.5
20260504030605 44 146 0.0 0.0 0.00 0.00 0.00 66 1012.4
20260504025559 44 146 0.0 0.0 0.00 0.00 0.00 66 1012.4
20260504025055 44 146 0.0 0.0 0.00 0.00 0.00 66 1012.4
20260504024552 45 146 0.0 0.0 0.00 0.00 0.00 65 1012.7
20260504024049 45 146 0.0 0.0 0.00 0.00 0.00 65 1012.7
20260504023546 45 146 0.0 0.0 0.00 0.00 0.00 64 1012.5
20260504023042 45 146 0.0 0.0 0.00 0.00 0.00 64 1012.5
20260504022538 46 146 0.0 0.0 0.00 0.00 0.00 63 1012.6
20260504022034 46 146 0.0 0.0 0.00 0.00 0.00 63 1012.6
20260504021532 46 146 0.0 0.0 0.00 0.00 0.00 62 1012.6
20260504021029 46 146 0.0 0.0 0.00 0.00 0.00 62 1012.6
20260504020525 46 146 0.0 0.0 0.00 0.00 0.00 61 1012.5
20260504020022 46 146 0.0 0.0 0.00 0.00 0.00 61 1012.5
20260504015518 47 146 0.0 0.0 0.00 0.00 0.00 60 1012.5
20260504015014 47 146 0.0 0.0 0.00 0.00 0.00 60 1012.5
20260504014510 47 146 0.0 0.0 0.00 0.00 0.00 59 1012.3
20260504014008 47 146 0.0 0.0 0.00 0.00 0.00 59 1012.3
20260504013506 48 146 0.0 0.0 0.00 0.00 0.00 57 1012.3
20260504013001 48 146 0.0 0.0 0.00 0.00 0.00 57 1012.3
20260504012500 49 146 0.0 0.0 0.00 0.00 0.00 56 1012.0
20260504011958 49 146 0.0 0.0 0.00 0.00 0.00 56 1012.0
20260504011454 49 146 0.0 0.0 0.00 0.00 0.00 73 1012.0
20260504010949 49 146 0.0 0.0 0.00 0.00 0.00 73 1012.0
20260504010446 50 146 0.0 0.0 0.00 0.00 0.00 54 1011.9
20260504005942 50 146 0.0 0.0 0.00 0.00 0.00 54 1011.9
20260504005439 51 146 0.0 0.0 0.00 0.00 0.00 51 1011.9
20260504004936 51 146 0.0 0.0 0.00 0.00 0.00 51 1011.9
20260504004434 52 146 0.0 0.0 0.00 0.00 0.00 51 1011.9
20260504003931 52 146 0.0 0.0 0.00 0.00 0.00 51 1011.9
20260504003427 52 146 0.0 0.0 0.00 0.00 0.00 48 1011.8
20260504002924 52 146 0.0 0.0 0.00 0.00 0.00 48 1011.8
20260504002421 53 146 0.0 0.0 0.00 0.00 0.00 48 1011.6
20260504001918 53 146 0.0 0.0 0.00 0.00 0.00 48 1011.6
20260504001416 54 145 1.0 1.0 0.00 0.00 0.00 44 1011.6
20260504000912 54 145 1.0 1.0 0.00 0.00 0.00 44 1011.6
20260504000409 55 143 0.0 0.0 0.00 0.00 0.00 41 1011.4
20260503235907 55 143 0.0 0.0 0.00 0.00 0.00 41 1011.4
20260503235405 56 136 0.0 0.0 0.00 0.00 0.00 38 1011.4
20260503234902 56 136 0.0 0.0 0.00 0.00 0.00 38 1011.4
20260503234359 56 140 0.0 0.0 0.00 0.00 0.00 36 1011.1
20260503233857 56 140 0.0 0.0 0.00 0.00 0.00 36 1011.1
20260503233353 57 147 0.0 0.0 0.00 0.00 0.00 35 1011.1
20260503232849 57 147 0.0 0.0 0.00 0.00 0.00 35 1011.1
20260503232347 57 150 0.0 1.0 0.00 0.00 0.00 35 1011.1
20260503231845 57 150 0.0 1.0 0.00 0.00 0.00 35 1011.1
20260503231341 57 146 1.0 2.0 0.00 0.00 0.00 33 1011.2
20260503230837 57 146 1.0 2.0 0.00 0.00 0.00 33 1011.2
20260503230334 58 128 0.0 0.0 0.00 0.00 0.00 34 1011.0
20260503225833 58 128 0.0 0.0 0.00 0.00 0.00 34 1011.0
20260503225328 58 118 2.0 2.0 0.00 0.00 0.00 34 1011.0
20260503224824 58 118 2.0 2.0 0.00 0.00 0.00 34 1011.0
20260503224322 58 137 0.0 0.0 0.00 0.00 0.00 33 1011.3
20260503223819 58 137 0.0 0.0 0.00 0.00 0.00 33 1011.3
20260503223317 58 132 0.0 1.0 0.00 0.00 0.00 32 1011.1
20260503222812 58 132 0.0 1.0 0.00 0.00 0.00 32 1011.1
20260503222311 59 149 1.0 1.0 0.00 0.00 0.00 32 1011.0
20260503221809 59 149 1.0 1.0 0.00 0.00 0.00 32 1011.0
20260503221307 59 135 1.0 1.0 0.00 0.00 0.00 31 1011.0
20260503220803 59 135 1.0 1.0 0.00 0.00 0.00 31 1011.0
20260503220300 59 153 0.0 0.0 0.00 0.00 0.00 33 1011.1
20260503215756 59 153 0.0 0.0 0.00 0.00 0.00 33 1011.1
20260503215253 59 87 1.0 1.0 0.00 0.00 0.00 32 1011.0
20260503214751 59 87 1.0 1.0 0.00 0.00 0.00 32 1011.0
20260503214248 59 94 1.0 1.0 0.00 0.00 0.00 33 1011.0
20260503213746 59 94 1.0 1.0 0.00 0.00 0.00 33 1011.0
20260503213243 59 152 0.0 0.0 0.00 0.00 0.00 33 1010.9
20260503212740 59 148 0.0 0.0 0.00 0.00 0.00 33 1010.7
20260503212238 59 148 0.0 0.0 0.00 0.00 0.00 33 1010.7
20260503211735 59 149 0.0 0.0 0.00 0.00 0.00 30 1010.5
20260503211231 59 149 0.0 0.0 0.00 0.00 0.00 30 1010.5
20260503210726 59 174 0.0 0.0 0.00 0.00 0.00 32 1010.7
20260503210224 59 174 0.0 0.0 0.00 0.00 0.00 32 1010.7
20260503205719 59 119 0.0 0.0 0.00 0.00 0.00 30 1010.7
20260503205216 59 119 0.0 0.0 0.00 0.00 0.00 30 1010.7
20260503204712 59 147 1.0 2.0 0.00 0.00 0.00 34 1010.7
20260503204211 59 147 1.0 2.0 0.00 0.00 0.00 34 1010.7
20260503203707 59 166 0.0 1.0 0.00 0.00 0.00 28 1010.5
20260503203205 59 166 0.0 1.0 0.00 0.00 0.00 28 1010.5
20260503202702 59 107 1.0 1.0 0.00 0.00 0.00 31 1010.7
20260503202200 59 107 1.0 1.0 0.00 0.00 0.00 31 1010.7
20260503201657 60 120 0.0 0.0 0.00 0.00 0.00 29 1010.7
20260503201155 60 120 0.0 0.0 0.00 0.00 0.00 29 1010.7
20260503200651 61 135 1.0 1.0 0.00 0.00 0.00 29 1011.1
20260503200147 61 135 1.0 1.0 0.00 0.00 0.00 29 1011.1
20260503195644 60 116 0.0 0.0 0.00 0.00 0.00 29 1011.0
20260503195141 60 116 0.0 0.0 0.00 0.00 0.00 29 1011.0
20260503194638 60 136 0.0 0.0 0.00 0.00 0.00 31 1011.4
20260503194133 60 136 0.0 0.0 0.00 0.00 0.00 31 1011.4
20260503193631 59 72 1.0 1.0 0.00 0.00 0.00 28 1011.6
20260503193126 59 72 1.0 1.0 0.00 0.00 0.00 28 1011.6
20260503192622 60 115 0.0 0.0 0.00 0.00 0.00 29 1011.4
20260503192118 60 115 0.0 0.0 0.00 0.00 0.00 29 1011.4
20260503191615 61 118 1.0 1.0 0.00 0.00 0.00 29 1011.6
20260503191111 61 118 1.0 1.0 0.00 0.00 0.00 29 1011.6
20260503190609 60 102 0.0 0.0 0.00 0.00 0.00 35 1011.7
20260503190106 60 102 0.0 0.0 0.00 0.00 0.00 35 1011.7
20260503185602 59 60 0.0 0.0 0.00 0.00 0.00 36 1012.0
20260503185102 59 60 0.0 0.0 0.00 0.00 0.00 36 1012.0
20260503184558 57 124 0.0 0.0 0.00 0.00 0.00 34 1012.2
20260503184055 57 124 0.0 0.0 0.00 0.00 0.00 34 1012.2
20260503183551 57 137 1.0 2.0 0.00 0.00 0.00 34 1012.2
20260503183048 57 137 1.0 2.0 0.00 0.00 0.00 34 1012.2
20260503182547 56 119 0.0 1.0 0.00 0.00 0.00 36 1012.3
20260503182045 56 119 0.0 1.0 0.00 0.00 0.00 36 1012.3
20260503181541 56 65 0.0 1.0 0.00 0.00 0.00 35 1012.3
20260503181038 56 65 0.0 1.0 0.00 0.00 0.00 35 1012.3
20260503180535 56 147 0.0 0.0 0.00 0.00 0.00 38 1012.5
20260503180032 56 147 0.0 0.0 0.00 0.00 0.00 38 1012.5
20260503175530 55 123 0.0 0.0 0.00 0.00 0.00 36 1012.8
20260503175027 55 123 0.0 0.0 0.00 0.00 0.00 36 1012.8
20260503174524 55 73 1.0 2.0 0.00 0.00 0.00 34 1012.9
20260503174020 55 73 1.0 2.0 0.00 0.00 0.00 34 1012.9
20260503173515 55 51 2.0 2.0 0.00 0.00 0.00 36 1013.1
20260503173012 55 51 2.0 2.0 0.00 0.00 0.00 36 1013.1
20260503172510 55 152 2.0 2.0 0.00 0.00 0.00 34 1013.2
20260503172006 55 152 2.0 2.0 0.00 0.00 0.00 34 1013.2
20260503171503 56 252 1.0 1.0 0.00 0.00 0.00 39 1013.2
20260503171000 56 252 1.0 1.0 0.00 0.00 0.00 39 1013.2
20260503170456 55 115 1.0 0.0 0.00 0.00 0.00 37 1013.4
20260503150849 51 141 1.0 1.0 0.00 0.00 0.00 36 1014.0
20260503150344 51 122 0.0 0.0 0.00 0.00 0.00 36 1013.9
20260503140309 50 224 0.0 0.0 0.00 0.00 0.00 41 1014.2
20260503131238 47 145 1.0 1.0 0.00 0.00 0.00 50 1014.5
20260503130736 47 145 1.0 1.0 0.00 0.00 0.00 50 1014.5
20260503130233 45 113 0.0 0.0 0.00 0.00 0.00 56 1014.5
20260503120159 42 136 0.0 0.0 0.00 0.00 0.00 64 1014.4
20260503110627 40 136 0.0 0.0 0.00 0.00 0.00 67 1014.1
20260503110124 40 136 0.0 0.0 0.00 0.00 0.00 67 1014.1